![]() |
EMODnet Physics ERDDAP
Easier access to scientific data |
log in|
Brought to you by EMODnet Physics |
| Dataset Title: | NDBC - Collection of dew point temperature (DEWT) TimeSeries - IN SITU MultiPointTimeSeriesObservation
|
| Institution: | NDBC (Dataset ID: TS_DEWT_NDBC) |
| Information: | Summary
| License
| FGDC
| ISO 19115
| Metadata
| Background
| Subset
| Data Access Form
| Make a graph
|
| Name | Last modified | Size | Description | |
|---|---|---|---|---|
| Parent Directory | - | - | ||
| 46023_TS_DEWT_011990.nc | 01-Jan-2025 10:28 | 429886 | ||
| 46023_TS_DEWT_011991.nc | 01-Jan-2025 10:29 | 450360 | ||
| 46023_TS_DEWT_011993.nc | 01-Jan-2025 10:33 | 450752 | ||
| 46023_TS_DEWT_011996.nc | 01-Jan-2025 10:38 | 451071 | ||
| 46023_TS_DEWT_011998.nc | 01-Jan-2025 10:40 | 451469 | ||
| 46023_TS_DEWT_011999.nc | 01-Jan-2025 10:42 | 449800 | ||
| 46023_TS_DEWT_012000.nc | 01-Jan-2025 10:44 | 451126 | ||
| 46023_TS_DEWT_012001.nc | 01-Jan-2025 10:46 | 451273 | ||
| 46023_TS_DEWT_012002.nc | 01-Jan-2025 10:48 | 450325 | ||
| 46023_TS_DEWT_012003.nc | 01-Jan-2025 10:49 | 450586 | ||
| 46023_TS_DEWT_012004.nc | 01-Jan-2025 10:51 | 451484 | ||
| 46023_TS_DEWT_012007.nc | 01-Jan-2025 10:57 | 450614 | ||
| 46023_TS_DEWT_012008.nc | 01-Jan-2025 10:59 | 428679 | ||
| 46023_TS_DEWT_012009.nc | 01-Jan-2025 11:01 | 429030 | ||
| 46023_TS_DEWT_021989.nc | 01-Jan-2025 10:26 | 428669 | ||
| 46023_TS_DEWT_021990.nc | 01-Jan-2025 10:28 | 428684 | ||
| 46023_TS_DEWT_021991.nc | 01-Jan-2025 10:29 | 428684 | ||
| 46023_TS_DEWT_021993.nc | 01-Jan-2025 10:33 | 429015 | ||
| 46023_TS_DEWT_021995.nc | 01-Jan-2025 10:36 | 428589 | ||
| 46023_TS_DEWT_021996.nc | 01-Jan-2025 10:38 | 419865 | ||
| 46023_TS_DEWT_021998.nc | 01-Jan-2025 10:40 | 428684 | ||
| 46023_TS_DEWT_021999.nc | 01-Jan-2025 10:42 | 429029 | ||
| 46023_TS_DEWT_022000.nc | 01-Jan-2025 10:44 | 428681 | ||
| 46023_TS_DEWT_022001.nc | 01-Jan-2025 10:46 | 428683 | ||
| 46023_TS_DEWT_022002.nc | 01-Jan-2025 10:48 | 447874 | ||
| 46023_TS_DEWT_022003.nc | 01-Jan-2025 10:50 | 448570 | ||
| 46023_TS_DEWT_022004.nc | 01-Jan-2025 10:51 | 430378 | ||
| 46023_TS_DEWT_022007.nc | 01-Jan-2025 10:57 | 447200 | ||
| 46023_TS_DEWT_022008.nc | 01-Jan-2025 10:59 | 446571 | ||
| 46023_TS_DEWT_022009.nc | 01-Jan-2025 11:01 | 447179 | ||
| 46023_TS_DEWT_031989.nc | 01-Jan-2025 10:26 | 447388 | ||
| 46023_TS_DEWT_031991.nc | 01-Jan-2025 10:30 | 444820 | ||
| 46023_TS_DEWT_031992.nc | 01-Jan-2025 10:32 | 449621 | ||
| 46023_TS_DEWT_031993.nc | 01-Jan-2025 10:33 | 447335 | ||
| 46023_TS_DEWT_031995.nc | 01-Jan-2025 10:36 | 447267 | ||
| 46023_TS_DEWT_031996.nc | 01-Jan-2025 10:38 | 447605 | ||
| 46023_TS_DEWT_031998.nc | 01-Jan-2025 10:40 | 429221 | ||
| 46023_TS_DEWT_031999.nc | 01-Jan-2025 10:42 | 446195 | ||
| 46023_TS_DEWT_032000.nc | 01-Jan-2025 10:44 | 447006 | ||
| 46023_TS_DEWT_032001.nc | 01-Jan-2025 10:46 | 447202 | ||
| 46023_TS_DEWT_032002.nc | 01-Jan-2025 10:48 | 447851 | ||
| 46023_TS_DEWT_032003.nc | 01-Jan-2025 10:50 | 446820 | ||
| 46023_TS_DEWT_032004.nc | 01-Jan-2025 10:52 | 446482 | ||
| 46023_TS_DEWT_032007.nc | 01-Jan-2025 10:57 | 447591 | ||
| 46023_TS_DEWT_032008.nc | 01-Jan-2025 10:59 | 448809 | ||
| 46023_TS_DEWT_032009.nc | 01-Jan-2025 11:01 | 446516 | ||
| 46023_TS_DEWT_041989.nc | 01-Jan-2025 10:26 | 448686 | ||
| 46023_TS_DEWT_041991.nc | 01-Jan-2025 10:30 | 446759 | ||
| 46023_TS_DEWT_041992.nc | 01-Jan-2025 10:32 | 429429 | ||
| 46023_TS_DEWT_041993.nc | 01-Jan-2025 10:34 | 429679 | ||
| 46023_TS_DEWT_041996.nc | 01-Jan-2025 10:38 | 429677 | ||
| 46023_TS_DEWT_041998.nc | 01-Jan-2025 10:40 | 429688 | ||
| 46023_TS_DEWT_041999.nc | 01-Jan-2025 10:42 | 429690 | ||
| 46023_TS_DEWT_042000.nc | 01-Jan-2025 10:44 | 429665 | ||
| 46023_TS_DEWT_042001.nc | 01-Jan-2025 10:46 | 429596 | ||
| 46023_TS_DEWT_042002.nc | 01-Jan-2025 10:48 | 429683 | ||
| 46023_TS_DEWT_042003.nc | 01-Jan-2025 10:50 | 429685 | ||
| 46023_TS_DEWT_042004.nc | 01-Jan-2025 10:52 | 429691 | ||
| 46023_TS_DEWT_042007.nc | 01-Jan-2025 10:57 | 429678 | ||
| 46023_TS_DEWT_042008.nc | 01-Jan-2025 11:00 | 450159 | ||
| 46023_TS_DEWT_042009.nc | 01-Jan-2025 11:02 | 450787 | ||
| 46023_TS_DEWT_051990.nc | 01-Jan-2025 10:28 | 429679 | ||
| 46023_TS_DEWT_051991.nc | 01-Jan-2025 10:30 | 450778 | ||
| 46023_TS_DEWT_051992.nc | 01-Jan-2025 10:32 | 449963 | ||
| 46023_TS_DEWT_051993.nc | 01-Jan-2025 10:34 | 451187 | ||
| 46023_TS_DEWT_051998.nc | 01-Jan-2025 10:40 | 450463 | ||
| 46023_TS_DEWT_051999.nc | 01-Jan-2025 10:42 | 450719 | ||
| 46023_TS_DEWT_052000.nc | 01-Jan-2025 10:44 | 450580 | ||
| 46023_TS_DEWT_052001.nc | 01-Jan-2025 10:46 | 449509 | ||
| 46023_TS_DEWT_052002.nc | 01-Jan-2025 10:48 | 450036 | ||
| 46023_TS_DEWT_052003.nc | 01-Jan-2025 10:50 | 449775 | ||
| 46023_TS_DEWT_052004.nc | 01-Jan-2025 10:52 | 429906 | ||
| 46023_TS_DEWT_052007.nc | 01-Jan-2025 10:58 | 435197 | ||
| 46023_TS_DEWT_052008.nc | 01-Jan-2025 11:00 | 451225 | ||
| 46023_TS_DEWT_052009.nc | 01-Jan-2025 11:02 | 449825 | ||
| 46023_TS_DEWT_061990.nc | 01-Jan-2025 10:28 | 450640 | ||
| 46023_TS_DEWT_061991.nc | 01-Jan-2025 10:30 | 450654 | ||
| 46023_TS_DEWT_061992.nc | 01-Jan-2025 10:32 | 451574 | ||
| 46023_TS_DEWT_061993.nc | 01-Jan-2025 10:34 | 449991 | ||
| 46023_TS_DEWT_061994.nc | 01-Jan-2025 10:35 | 450504 | ||
| 46023_TS_DEWT_061997.nc | 01-Jan-2025 10:39 | 443088 | ||
| 46023_TS_DEWT_061998.nc | 01-Jan-2025 10:41 | 451015 | ||
| 46023_TS_DEWT_061999.nc | 01-Jan-2025 10:43 | 451288 | ||
| 46023_TS_DEWT_062000.nc | 01-Jan-2025 10:45 | 427081 | ||
| 46023_TS_DEWT_062001.nc | 01-Jan-2025 10:47 | 428931 | ||
| 46023_TS_DEWT_062002.nc | 01-Jan-2025 10:48 | 429356 | ||
| 46023_TS_DEWT_062003.nc | 01-Jan-2025 10:50 | 429330 | ||
| 46023_TS_DEWT_062004.nc | 01-Jan-2025 10:52 | 429356 | ||
| 46023_TS_DEWT_062007.nc | 01-Jan-2025 10:58 | 429359 | ||
| 46023_TS_DEWT_062008.nc | 01-Jan-2025 11:00 | 429350 | ||
| 46023_TS_DEWT_062009.nc | 01-Jan-2025 11:02 | 425170 | ||
| 46023_TS_DEWT_071991.nc | 01-Jan-2025 10:30 | 429364 | ||
| 46023_TS_DEWT_071992.nc | 01-Jan-2025 10:32 | 429352 | ||
| 46023_TS_DEWT_071997.nc | 01-Jan-2025 10:39 | 439769 | ||
| 46023_TS_DEWT_071998.nc | 01-Jan-2025 10:41 | 429363 | ||
| 46023_TS_DEWT_071999.nc | 01-Jan-2025 10:43 | 448862 | ||
| 46023_TS_DEWT_072000.nc | 01-Jan-2025 10:45 | 449600 | ||
| 46023_TS_DEWT_072001.nc | 01-Jan-2025 10:47 | 427309 | ||
| 46023_TS_DEWT_072002.nc | 01-Jan-2025 10:49 | 449986 | ||
| 46023_TS_DEWT_072003.nc | 01-Jan-2025 10:50 | 448744 | ||
| 46023_TS_DEWT_072004.nc | 01-Jan-2025 10:52 | 450848 | ||
| 46023_TS_DEWT_072007.nc | 01-Jan-2025 10:58 | 448476 | ||
| 46023_TS_DEWT_072008.nc | 01-Jan-2025 11:00 | 449813 | ||
| 46023_TS_DEWT_072009.nc | 01-Jan-2025 11:02 | 449201 | ||
| 46023_TS_DEWT_081989.nc | 01-Jan-2025 10:27 | 448809 | ||
| 46023_TS_DEWT_081990.nc | 01-Jan-2025 10:28 | 449270 | ||
| 46023_TS_DEWT_081991.nc | 01-Jan-2025 10:30 | 449317 | ||
| 46023_TS_DEWT_081997.nc | 01-Jan-2025 10:39 | 429564 | ||
| 46023_TS_DEWT_081998.nc | 01-Jan-2025 10:41 | 449124 | ||
| 46023_TS_DEWT_081999.nc | 01-Jan-2025 10:43 | 448689 | ||
| 46023_TS_DEWT_082000.nc | 01-Jan-2025 10:45 | 448728 | ||
| 46023_TS_DEWT_082001.nc | 01-Jan-2025 10:47 | 449521 | ||
| 46023_TS_DEWT_082002.nc | 01-Jan-2025 10:49 | 418872 | ||
| 46023_TS_DEWT_082003.nc | 01-Jan-2025 10:51 | 449080 | ||
| 46023_TS_DEWT_082004.nc | 01-Jan-2025 10:53 | 448527 | ||
| 46023_TS_DEWT_082007.nc | 01-Jan-2025 10:58 | 449176 | ||
| 46023_TS_DEWT_082008.nc | 01-Jan-2025 11:00 | 449216 | ||
| 46023_TS_DEWT_082009.nc | 01-Jan-2025 11:02 | 450276 | ||
| 46023_TS_DEWT_091989.nc | 01-Jan-2025 10:27 | 426603 | ||
| 46023_TS_DEWT_091990.nc | 01-Jan-2025 10:29 | 429665 | ||
| 46023_TS_DEWT_091991.nc | 01-Jan-2025 10:31 | 429679 | ||
| 46023_TS_DEWT_091992.nc | 01-Jan-2025 10:32 | 429689 | ||
| 46023_TS_DEWT_091994.nc | 01-Jan-2025 10:35 | 428976 | ||
| 46023_TS_DEWT_091997.nc | 01-Jan-2025 10:39 | 429678 | ||
| 46023_TS_DEWT_091998.nc | 01-Jan-2025 10:41 | 429683 | ||
| 46023_TS_DEWT_091999.nc | 01-Jan-2025 10:43 | 429693 | ||
| 46023_TS_DEWT_092000.nc | 01-Jan-2025 10:45 | 429664 | ||
| 46023_TS_DEWT_092001.nc | 01-Jan-2025 10:47 | 429679 | ||
| 46023_TS_DEWT_092002.nc | 01-Jan-2025 10:49 | 429692 | ||
| 46023_TS_DEWT_092003.nc | 01-Jan-2025 10:51 | 429682 | ||
| 46023_TS_DEWT_092004.nc | 01-Jan-2025 10:53 | 426057 | ||
| 46023_TS_DEWT_092006.nc | 01-Jan-2025 10:56 | 449605 | ||
| 46023_TS_DEWT_092007.nc | 01-Jan-2025 10:58 | 450579 | ||
| 46023_TS_DEWT_092008.nc | 01-Jan-2025 11:00 | 441029 | ||
| 46023_TS_DEWT_101989.nc | 01-Jan-2025 10:27 | 450122 | ||
| 46023_TS_DEWT_101990.nc | 01-Jan-2025 10:29 | 451027 | ||
| 46023_TS_DEWT_101992.nc | 01-Jan-2025 10:33 | 450861 | ||
| 46023_TS_DEWT_101995.nc | 01-Jan-2025 10:37 | 450870 | ||
| 46023_TS_DEWT_101997.nc | 01-Jan-2025 10:39 | 451146 | ||
| 46023_TS_DEWT_101998.nc | 01-Jan-2025 10:41 | 451220 | ||
| 46023_TS_DEWT_101999.nc | 01-Jan-2025 10:43 | 450075 | ||
| 46023_TS_DEWT_102000.nc | 01-Jan-2025 10:45 | 450137 | ||
| 46023_TS_DEWT_102001.nc | 01-Jan-2025 10:47 | 439338 | ||
| 46023_TS_DEWT_102002.nc | 01-Jan-2025 10:49 | 429885 | ||
| 46023_TS_DEWT_102003.nc | 01-Jan-2025 10:51 | 427097 | ||
| 46023_TS_DEWT_102004.nc | 01-Jan-2025 10:53 | 451520 | ||
| 46023_TS_DEWT_102006.nc | 01-Jan-2025 10:56 | 450079 | ||
| 46023_TS_DEWT_102007.nc | 01-Jan-2025 10:59 | 449940 | ||
| 46023_TS_DEWT_102008.nc | 01-Jan-2025 11:01 | 450894 | ||
| 46023_TS_DEWT_111989.nc | 01-Jan-2025 10:27 | 449905 | ||
| 46023_TS_DEWT_111990.nc | 01-Jan-2025 10:29 | 450191 | ||
| 46023_TS_DEWT_111992.nc | 01-Jan-2025 10:33 | 450512 | ||
| 46023_TS_DEWT_111995.nc | 01-Jan-2025 10:37 | 450300 | ||
| 46023_TS_DEWT_111997.nc | 01-Jan-2025 10:39 | 449963 | ||
| 46023_TS_DEWT_111998.nc | 01-Jan-2025 10:41 | 449730 | ||
| 46023_TS_DEWT_111999.nc | 01-Jan-2025 10:43 | 429326 | ||
| 46023_TS_DEWT_112000.nc | 01-Jan-2025 10:45 | 429320 | ||
| 46023_TS_DEWT_112001.nc | 01-Jan-2025 10:47 | 429357 | ||
| 46023_TS_DEWT_112002.nc | 01-Jan-2025 10:49 | 429347 | ||
| 46023_TS_DEWT_112003.nc | 01-Jan-2025 10:51 | 425152 | ||
| 46023_TS_DEWT_112004.nc | 01-Jan-2025 10:53 | 424611 | ||
| 46023_TS_DEWT_112006.nc | 01-Jan-2025 10:57 | 429111 | ||
| 46023_TS_DEWT_112007.nc | 01-Jan-2025 10:59 | 429354 | ||
| 46023_TS_DEWT_112008.nc | 01-Jan-2025 11:01 | 429363 | ||
| 46023_TS_DEWT_121989.nc | 01-Jan-2025 10:27 | 429359 | ||
| 46023_TS_DEWT_121990.nc | 01-Jan-2025 10:29 | 429358 | ||
| 46023_TS_DEWT_121992.nc | 01-Jan-2025 10:33 | 429365 | ||
| 46023_TS_DEWT_121994.nc | 01-Jan-2025 10:36 | 443646 | ||
| 46023_TS_DEWT_121995.nc | 01-Jan-2025 10:37 | 448982 | ||
| 46023_TS_DEWT_121997.nc | 01-Jan-2025 10:40 | 448624 | ||
| 46023_TS_DEWT_121998.nc | 01-Jan-2025 10:42 | 448932 | ||
| 46023_TS_DEWT_121999.nc | 01-Jan-2025 10:44 | 448217 | ||
| 46023_TS_DEWT_122000.nc | 01-Jan-2025 10:46 | 449340 | ||
| 46023_TS_DEWT_122001.nc | 01-Jan-2025 10:47 | 446270 | ||
| 46023_TS_DEWT_122003.nc | 01-Jan-2025 10:51 | 450152 | ||
| 46023_TS_DEWT_122004.nc | 01-Jan-2025 10:53 | 450026 | ||
| 46023_TS_DEWT_122006.nc | 01-Jan-2025 10:57 | 449698 | ||
| 46023_TS_DEWT_122007.nc | 01-Jan-2025 10:59 | 449251 | ||
| 46023_TS_DEWT_122008.nc | 01-Jan-2025 11:01 | 448850 | ||